Wind_Speed
8 6 1 4 6 6 13 15 15 11 10 9 10 9 11 17 14 4 2 4 5 17 23 32 30 28 26 25 23 22 22 20 17 15 14 12 10 9 9 8 7 5 4 3 4 5 6 8 9
4 3 2 4 7 11 11 13 15 12 16 6 11 12 16 17 17 9 6 3 7 17 23 30 31 30 28 25 23 24 23 19 16 16 13 10 9 9 8 7 6 6 5 5 6 7 8 9 10
4 1 6 4 8 12 11 8 6 10 12 9 8 9 9 6 11 7 11 7 8 18 22 27 31 31 28 27 25 23 22 19 18 16 11 9 9 9 8 8 7 7 6 7 7 8 9 10 11
0 3 5 7 14 11 9 10 4 11 15 13 12 10 14 10 8 13 14 11 7 18 22 27 31 32 29 28 26 25 23 18 19 15 11 10 10 9 9 9 8 8 8 8 9 10 10 11 12
1 4 7 9 13 11 9 11 12 12 18 19 16 17 22 16 13 13 11 8 9 17 20 27 31 32 29 28 27 26 23 19 18 16 12 11 11 10 10 10 9 9 10 10 11 11 12 14 16
4 4 7 10 10 5 7 11 13 16 18 21 22 20 25 17 10 11 14 12 11 18 21 23 33 31 31 29 29 27 24 20 19 17 14 13 12 11 11 11 11 11 11 12 12 12 14 15 16
6 5 11 10 12 11 5 7 10 13 16 17 18 19 19 16 4 13 12 11 15 20 22 22 35 32 31 31 30 27 25 21 19 17 15 14 14 13 13 12 13 13 13 13 13 14 15 15 15
5 4 7 7 8 12 7 6 11 12 15 17 14 8 15 21 10 17 12 9 16 21 24 24 31 33 33 32 29 27 25 21 19 17 17 16 15 15 15 14 14 14 14 13 14 14 15 15 15
3 5 8 9 8 9 8 12 15 16 22 20 22 26 27 31 24 21 15 13 17 24 25 29 34 33 33 31 30 27 24 22 20 19 17 16 16 16 15 16 15 15 15 14 14 14 15 15 15
5 7 8 6 11 14 17 18 21 22 25 27 25 27 27 28 28 22 16 19 21 28 28 33 36 34 33 33 31 28 25 23 21 21 19 17 15 16 14 17 16 16 15 15 15 15 15 14 16
3 6 10 15 15 17 19 22 22 22 24 27 25 26 25 25 26 25 21 19 21 32 31 34 38 37 38 39 33 26 25 23 21 20 22 17 17 21 18 19 18 17 16 16 16 17 13 10 12
8 14 14 20 19 20 20 26 25 26 34 28 28 26 26 27 26 26 22 20 24 33 38 39 39 43 39 37 31 23 23 22 22 23 22 21 21 19 17 18 17 17 15 15 15 14 12 13 12
15 13 13 17 23 24 26 25 24 32 32 28 27 26 28 30 29 27 25 22 21 30 38 42 41 40 45 39 29 25 22 25 22 24 23 22 20 20 18 17 18 17 17 15 14 13 13 13 13
9 15 23 19 19 17 17 22 20 31 19 20 22 24 26 27 27 26 26 24 22 28 35 36 43 44 42 39 29 26 23 24 24 26 27 23 22 23 21 21 19 18 18 17 15 15 14 13 13
13 15 15 14 6 10 11 17 15 26 19 22 22 23 24 23 24 26 24 22 22 27 35 33 48 43 45 43 30 26 24 23 26 26 25 24 23 24 23 21 21 20 18 17 17 16 15 14 13
6 8 7 4 6 5 3 13 15 15 17 22 25 28 24 20 15 18 21 21 20 25 28 37 42 38 45 48 33 29 25 25 24 26 27 24 24 24 24 23 21 22 22 22 20 19 18 16 15
7 8 14 10 5 6 8 20 17 32 26 26 27 28 27 22 19 16 17 16 17 21 27 25 29 43 41 43 35 29 27 25 24 24 25 26 24 25 24 23 23 22 21 20 18 17 16 17 15
6 15 15 14 5 15 19 24 22 26 20 20 19 19 21 20 18 16 15 15 12 16 24 31 42 22 28 27 28 24 27 25 24 24 23 26 26 26 25 24 23 23 23 21 20 19 18 17 18
14 14 17 16 10 8 14 21 20 19 11 13 14 10 13 17 16 14 14 12 13 18 30 28 26 41 13 14 15 26 26 25 25 24 25 26 26 26 26 25 24 24 23 22 21 21 22 20 19
13 15 17 13 4 11 17 24 14 5 6 10 13 11 7 7 9 13 13 13 15 18 25 28 26 24 29 25 22 13 14 19 25 25 26 27 26 27 26 25 25 24 22 21 22 22 24 22 22
14 15 16 15 16 17 11 13 5 4 4 7 11 10 6 4 4 9 12 15 17 17 22 25 27 26 27 17 14 12 11 16 15 23 25 26 26 26 26 25 23 23 22 22 22 22 23 25 22
15 5 6 10 10 5 9 6 4 0 1 2 11 12 10 9 8 6 11 15 21 21 27 31 32 24 27 24 33 27 11 22 26 27 29 30 28 27 26 24 24 23 22 22 22 22 23 21 24
6 5 10 11 11 10 5 4 2 3 5 6 11 13 13 12 12 8 8 13 17 23 29 34 28 27 26 28 33 28 37 15 31 35 35 34 31 28 27 26 26 24 24 23 23 22 23 19 19
10 13 15 8 5 4 5 2 7 2 2 4 11 14 15 17 17 13 6 10 15 22 30 32 35 34 32 30 31 33 45 32 40 45 43 38 35 32 30 28 27 26 25 25 23 21 20 20 19
5 9 4 4 4 3 4 5 9 3 3 5 7 9 12 18 21 17 11 6 13 21 25 30 31 38 39 33 30 34 42 40 33 45 45 42 41 39 36 33 31 30 27 25 24 23 21 19 17
8 6 6 5 5 8 5 6 2 7 6 6 6 10 22 24 21 19 14 11 11 19 24 28 33 33 38 40 34 30 33 35 39 38 39 42 43 41 38 36 34 32 29 27 25 24 22 21 19
4 5 3 6 8 5 6 6 11 9 9 7 10 19 23 25 23 20 18 13 12 17 23 29 29 33 33 40 41 41 36 40 41 39 39 41 39 38 37 37 36 33 32 30 28 26 24 22 20
8 6 5 4 4 7 6 10 7 7 9 8 12 22 27 28 25 23 20 18 14 13 21 24 29 30 32 37 39 45 43 38 39 40 40 40 40 38 36 36 35 34 33 31 30 28 25 22 19
6 5 7 5 7 6 7 4 5 5 5 13 19 26 29 29 30 30 26 20 15 10 16 22 26 28 32 36 41 45 41 41 39 41 41 40 37 35 37 36 35 34 34 32 31 28 25 21 17
9 14 15 10 9 8 10 9 7 2 2 17 24 28 31 28 28 29 28 23 14 13 16 22 23 26 32 32 34 39 46 41 42 40 42 40 38 37 39 37 37 36 34 33 31 29 25 19 15
Wind_Direction
353 329 249 196 232 237 258 248 254 255 252 294 337 303 282 285 264 306 94 207 165 185 187 185 186 179 173 182 184 170 173 177 177 180 175 177 179 185 196 204 207 204 195 170 153 145 135 132 125
11 345 192 255 250 240 252 239 246 237 262 339 309 280 259 266 276 282 10 303 180 181 183 183 186 180 177 179 174 173 182 187 182 176 174 180 181 185 191 195 191 183 173 160 150 134 130 123 123
340 211 244 235 244 251 279 359 305 276 277 294 288 291 302 325 3 335 6 325 193 183 186 184 186 182 182 182 178 180 187 192 182 178 180 182 182 185 186 181 177 170 162 148 140 131 130 126 125
300 218 248 249 258 265 287 303 325 298 282 274 268 266 256 290 311 323 321 313 226 193 189 195 189 181 185 186 184 185 189 191 186 186 189 186 186 185 181 172 167 162 154 148 141 138 133 131 129
314 245 253 240 267 278 299 293 291 284 277 275 268 271 267 262 301 314 297 294 230 203 195 204 192 181 188 189 187 191 193 193 193 193 195 191 188 183 174 171 165 158 153 150 145 142 139 131 132
234 280 249 254 274 320 257 274 279 273 273 275 268 267 271 269 276 312 306 302 220 208 197 207 193 187 192 193 189 195 195 198 198 198 200 194 188 179 173 169 163 156 153 150 148 143 140 136 136
283 264 266 290 284 285 308 312 281 284 280 274 279 278 273 261 266 330 298 312 204 210 198 202 189 191 196 195 194 196 197 199 200 201 201 193 187 177 172 169 163 157 155 151 148 144 141 138 138
281 268 267 259 280 291 321 290 286 278 279 280 281 260 261 248 307 329 307 298 221 206 199 198 189 194 198 196 198 199 198 200 202 203 201 192 184 176 172 170 163 159 157 152 147 145 140 139 140
281 256 276 292 283 287 295 284 280 281 274 271 265 265 268 276 291 297 300 274 217 202 197 198 198 195 196 195 196 203 198 201 203 204 199 187 182 174 166 172 167 161 157 152 149 151 145 142 141
262 270 297 319 299 292 295 288 288 287 276 270 269 265 265 268 271 270 278 262 223 203 202 204 202 193 192 190 194 199 197 200 199 199 190 172 174 172 172 173 171 162 157 151 154 144 139 139 140
243 257 314 292 288 292 291 284 283 277 269 266 271 272 271 263 258 250 257 264 240 212 206 211 203 196 190 197 197 191 195 192 187 187 179 170 169 178 181 172 168 162 157 152 152 145 118 144 145
270 263 273 287 289 287 283 288 281 273 270 276 274 271 269 264 258 251 250 258 243 219 209 208 203 197 189 198 193 187 191 183 187 189 173 176 183 170 172 165 165 163 149 162 161 141 159 152 148
254 274 287 289 287 282 281 274 277 274 274 275 270 266 263 260 258 254 248 252 250 232 215 216 201 189 199 200 177 188 187 184 184 184 181 181 180 170 171 169 166 164 165 164 159 164 159 150 148
311 295 291 290 282 283 276 278 279 272 281 274 265 261 259 261 258 256 246 246 248 242 228 218 205 198 202 198 181 186 188 183 187 186 185 181 183 179 173 176 171 170 166 165 164 161 157 155 148
284 297 296 265 266 291 306 277 246 263 266 271 263 265 267 264 257 250 245 245 248 250 232 243 200 202 201 204 183 186 187 183 191 189 186 184 187 183 181 176 178 173 167 164 159 160 161 154 154
272 276 287 147 240 266 287 287 300 316 299 280 272 273 268 255 258 251 248 249 248 248 234 215 213 209 203 205 184 182 184 183 187 189 191 186 190 187 184 184 178 178 176 172 167 167 160 156 154
194 286 308 315 187 287 247 292 302 304 293 285 278 269 264 262 255 257 250 250 251 251 229 216 223 210 199 193 184 181 180 181 184 187 190 191 189 189 187 187 187 185 182 179 175 161 159 155 159
295 290 297 295 295 285 279 279 296 306 300 302 297 279 260 254 251 250 241 242 254 249 229 213 226 245 182 179 165 176 181 172 181 187 187 194 195 192 188 189 189 184 183 179 175 169 162 162 162
289 285 286 294 331 308 285 295 300 300 304 319 330 308 264 256 251 240 224 219 229 223 207 208 209 217 246 171 149 174 176 174 184 189 192 196 197 194 193 194 191 189 186 188 182 176 167 164 163
270 277 284 298 190 309 298 299 293 290 310 328 332 339 327 280 246 229 215 205 221 224 218 203 205 207 214 219 201 163 182 181 185 188 193 196 199 198 197 197 196 193 190 188 188 186 174 176 178
265 271 282 291 318 284 315 273 192 166 283 349 356 8 27 1 299 236 218 200 208 211 216 203 204 197 209 179 174 166 196 189 185 193 196 197 200 200 200 199 198 197 197 194 194 191 191 184 169
282 337 305 293 313 309 352 300 270 273 281 4 19 16 10 6 359 295 228 210 206 209 203 195 189 206 212 210 232 223 207 238 227 206 204 201 200 200 200 200 199 200 198 197 196 194 194 194 190
267 325 290 295 289 297 173 246 249 135 51 56 51 36 26 14 359 343 248 224 205 209 208 200 208 202 203 207 198 206 201 270 238 217 210 208 204 201 199 200 199 199 199 199 198 195 194 199 201
293 291 273 263 265 243 154 331 275 79 56 64 72 51 37 16 5 359 307 234 216 205 213 218 217 214 206 196 195 203 210 214 216 215 209 208 205 203 202 201 202 201 202 201 199 198 198 197 202
234 276 294 230 207 268 145 279 258 331 59 21 33 43 29 4 354 348 348 272 223 221 217 214 217 215 203 196 201 208 213 214 203 210 211 206 203 204 202 202 202 202 204 203 201 202 202 201 198
283 286 270 291 298 306 239 242 157 100 90 69 59 52 9 357 354 346 335 320 253 229 225 221 214 214 213 208 207 215 221 207 212 216 206 208 209 206 202 201 202 203 201 199 198 198 198 198 197
100 226 5 292 275 268 234 255 267 112 120 84 71 9 8 358 353 349 338 316 296 243 235 228 224 220 219 214 220 223 219 215 223 215 213 214 211 206 203 204 202 200 199 197 195 193 190 188 188
242 354 256 205 268 277 261 243 249 141 63 35 4 359 359 351 348 344 334 321 298 265 244 236 230 227 227 223 219 226 230 225 221 219 214 217 217 216 208 203 202 199 196 193 191 187 184 184 183
217 229 225 299 270 277 295 283 111 85 86 5 353 1 352 349 345 336 330 322 298 271 245 245 233 232 228 227 225 226 229 229 224 222 221 220 218 217 211 209 204 200 194 189 186 182 179 175 176
276 277 280 265 264 227 276 267 332 126 237 351 2 350 347 348 347 344 335 327 296 271 246 241 239 234 230 230 230 229 231 227 228 226 220 218 219 219 211 204 199 192 190 185 183 179 176 180 190
Height
1489 1491 1491 1492 1490 1478 1471 1465 1456 1460 1462 1463 1467 1467 1462 1462 1460 1467 1467 1469 1469 1469 1469 1470 1474 1478 1482 1486 1489 1492 1495 1497 1499 1501 1504 1506 1508 1509 1511 1512 1513 1514 1514 1515 1516 1517 1518 1519 1520
1487 1491 1492 1487 1484 1474 1463 1452 1457 1463 1465 1468 1469 1469 1469 1465 1465 1465 1467 1468 1470 1470 1470 1471 1474 1478 1482 1486 1489 1492 1495 1497 1499 1502 1504 1506 1508 1509 1511 1512 1514 1515 1516 1517 1517 1518 1518 1520 1521
1490 1491 1490 1481 1473 1471 1462 1455 1458 1464 1466 1470 1472 1470 1472 1464 1466 1468 1469 1470 1472 1471 1472 1473 1474 1478 1482 1486 1490 1493 1495 1497 1500 1502 1504 1506 1508 1509 1511 1512 1514 1515 1516 1517 1518 1519 1520 1521 1522
1492 1493 1491 1483 1471 1461 1463 1464 1471 1472 1471 1471 1473 1473 1472 1470 1471 1472 1471 1472 1473 1473 1473 1474 1475 1479 1482 1486 1489 1492 1495 1498 1500 1503 1505 1507 1508 1510 1511 1513 1514 1516 1517 1518 1519 1520 1521 1522 1523
1493 1491 1483 1478 1471 1465 1466 1472 1474 1475 1474 1471 1472 1470 1470 1470 1470 1471 1470 1472 1473 1474 1475 1473 1476 1479 1482 1485 1488 1492 1495 1498 1500 1503 1505 1506 1508 1510 1511 1513 1515 1516 1518 1519 1521 1522 1523 1524 1525
1491 1489 1480 1474 1462 1464 1470 1474 1475 1473 1473 1472 1470 1469 1469 1470 1469 1470 1467 1468 1471 1473 1475 1474 1476 1480 1482 1485 1488 1491 1495 1497 1500 1502 1504 1506 1508 1510 1512 1514 1515 1517 1518 1520 1521 1523 1524 1525 1527
1490 1485 1476 1471 1471 1468 1468 1474 1474 1471 1469 1468 1468 1465 1468 1469 1466 1466 1466 1465 1467 1472 1473 1474 1475 1479 1482 1485 1488 1490 1494 1497 1500 1502 1504 1505 1507 1510 1512 1514 1515 1517 1519 1520 1522 1523 1525 1527 1528
1492 1488 1476 1471 1470 1470 1469 1475 1475 1474 1469 1469 1470 1467 1464 1466 1465 1464 1463 1462 1465 1468 1470 1472 1475 1477 1480 1484 1488 1490 1493 1496 1499 1501 1503 1505 1507 1510 1512 1514 1515 1517 1519 1521 1522 1524 1526 1528 1530
1494 1486 1473 1469 1472 1468 1469 1471 1471 1471 1468 1467 1467 1466 1465 1460 1463 1463 1462 1461 1461 1464 1467 1470 1472 1474 1478 1482 1485 1489 1492 1495 1497 1500 1503 1505 1507 1509 1512 1513 1515 1517 1519 1521 1523 1525 1527 1529 1532
1491 1481 1473 1472 1472 1471 1470 1470 1468 1468 1464 1460 1461 1461 1460 1460 1459 1459 1459 1460 1458 1460 1464 1466 1468 1471 1474 1478 1482 1486 1489 1492 1495 1498 1501 1505 1507 1509 1512 1513 1515 1517 1520 1522 1524 1527 1529 1531 1533
1486 1481 1474 1474 1474 1473 1470 1467 1466 1463 1455 1455 1454 1454 1454 1454 1453 1453 1454 1455 1455 1457 1461 1461 1464 1467 1470 1472 1479 1484 1486 1489 1493 1496 1500 1506 1508 1508 1510 1512 1515 1518 1520 1523 1525 1528 1531 1535 1535
1487 1478 1477 1473 1472 1471 1468 1464 1459 1458 1447 1450 1450 1449 1450 1449 1448 1448 1449 1450 1451 1453 1455 1457 1459 1461 1464 1470 1476 1482 1484 1487 1491 1493 1498 1502 1504 1507 1509 1512 1515 1517 1521 1523 1525 1528 1533 1535 1537
1481 1477 1474 1472 1469 1467 1464 1458 1455 1447 1445 1444 1442 1442 1442 1442 1443 1443 1444 1446 1447 1446 1448 1452 1455 1456 1459 1467 1474 1480 1482 1486 1489 1492 1495 1498 1501 1505 1509 1513 1515 1517 1521 1523 1527 1530 1532 1535 1537
1477 1476 1471 1467 1463 1461 1459 1452 1452 1439 1440 1437 1436 1435 1435 1435 1437 1437 1438 1439 1441 1442 1443 1443 1451 1453 1457 1463 1471 1476 1480 1482 1486 1489 1492 1496 1499 1502 1506 1509 1513 1516 1519 1522 1526 1529 1532 1535 1538
1479 1474 1465 1457 1458 1458 1456 1446 1439 1434 1434 1432 1430 1430 1430 1430 1430 1430 1432 1433 1435 1437 1442 1443 1448 1446 1453 1459 1467 1472 1476 1477 1481 1485 1490 1494 1496 1499 1503 1507 1511 1514 1518 1521 1525 1528 1532 1535 1538
1475 1470 1459 1450 1453 1455 1458 1436 1430 1430 1429 1426 1425 1424 1423 1424 1425 1426 1428 1429 1429 1430 1430 1437 1433 1441 1449 1452 1460 1466 1471 1473 1477 1482 1486 1492 1494 1496 1501 1505 1509 1512 1515 1519 1522 1525 1529 1533 1537
1465 1460 1454 1450 1452 1454 1455 1436 1426 1429 1423 1417 1416 1416 1418 1419 1421 1422 1424 1425 1424 1424 1425 1427 1436 1441 1447 1447 1455 1463 1465 1469 1473 1479 1483 1489 1493 1495 1498 1502 1505 1509 1513 1517 1521 1524 1528 1532 1537
1470 1457 1450 1450 1445 1443 1442 1433 1424 1420 1415 1412 1409 1409 1411 1413 1415 1417 1419 1421 1421 1420 1419 1423 1430 1435 1426 1446 1448 1464 1465 1466 1470 1475 1480 1486 1490 1493 1495 1500 1503 1507 1511 1515 1520 1523 1527 1531 1535
1458 1458 1452 1444 1440 1446 1437 1429 1420 1415 1412 1409 1406 1404 1406 1408 1411 1413 1413 1416 1417 1419 1421 1422 1427 1430 1440 1445 1451 1462 1466 1464 1466 1472 1477 1483 1487 1491 1493 1497 1501 1504 1508 1512 1517 1521 1524 1528 1532
1460 1456 1448 1437 1442 1442 1431 1422 1414 1411 1411 1409 1406 1404 1404 1405 1408 1410 1409 1411 1413 1415 1418 1423 1429 1437 1439 1449 1455 1461 1468 1465 1464 1469 1476 1479 1484 1488 1491 1495 1499 1503 1506 1510 1514 1518 1522 1525 1528
1453 1450 1444 1444 1440 1432 1432 1408 1407 1409 1410 1408 1405 1405 1406 1406 1407 1407 1408 1410 1411 1414 1416 1419 1424 1429 1435 1438 1453 1455 1463 1462 1464 1467 1474 1478 1482 1486 1488 1492 1498 1501 1504 1508 1512 1516 1519 1522 1527
1450 1445 1446 1447 1446 1442 1430 1429 1403 1403 1405 1404 1403 1405 1406 1407 1407 1407 1406 1409 1409 1410 1415 1418 1424 1425 1427 1429 1437 1448 1456 1461 1463 1467 1472 1475 1478 1482 1486 1491 1495 1499 1502 1505 1510 1513 1517 1519 1523
1446 1450 1449 1446 1445 1441 1429 1436 1401 1403 1404 1404 1405 1407 1408 1408 1407 1406 1406 1406 1408 1411 1412 1416 1419 1420 1424 1428 1435 1438 1442 1452 1458 1465 1468 1471 1475 1479 1482 1487 1491 1496 1500 1503 1508 1511 1515 1518 1520
1448 1448 1440 1440 1443 1444 1417 1427 1410 1403 1406 1404 1407 1411 1411 1409 1407 1406 1404 1403 1405 1406 1407 1412 1415 1419 1423 1427 1429 1432 1439 1445 1451 1455 1457 1465 1470 1473 1477 1483 1488 1492 1497 1501 1505 1509 1513 1516 1518
1450 1445 1442 1440 1445 1428 1426 1430 1407 1399 1402 1407 1410 1412 1413 1411 1408 1406 1404 1402 1403 1403 1404 1406 1410 1413 1418 1422 1425 1430 1433 1440 1440 1445 1452 1459 1462 1466 1469 1476 1482 1487 1493 1497 1502 1507 1511 1514 1516
1441 1443 1443 1442 1429 1424 1418 1424 1400 1399 1406 1409 1412 1413 1413 1411 1409 1406 1404 1403 1401 1400 1401 1405 1407 1410 1414 1418 1421 1424 1430 1433 1440 1445 1451 1455 1461 1462 1464 1470 1477 1482 1488 1493 1498 1503 1507 1510 1513
1441 1444 1440 1441 1428 1438 1415 1404 1395 1398 1406 1408 1411 1412 1413 1411 1408 1406 1403 1402 1399 1399 1397 1399 1403 1406 1406 1411 1417 1421 1427 1430 1437 1445 1450 1454 1460 1460 1463 1468 1473 1478 1483 1488 1492 1498 1502 1506 1510
1443 1443 1441 1439 1442 1427 1409 1407 1408 1405 1404 1411 1411 1410 1412 1410 1407 1405 1402 1399 1396 1394 1394 1395 1398 1400 1405 1408 1413 1415 1422 1426 1434 1440 1445 1450 1454 1456 1463 1466 1471 1477 1480 1484 1489 1494 1498 1503 1508
1439 1441 1441 1437 1428 1428 1417 1403 1393 1400 1407 1406 1406 1411 1413 1411 1407 1403 1401 1397 1393 1391 1391 1391 1395 1399 1401 1404 1410 1413 1418 1423 1429 1434 1438 1446 1448 1455 1460 1465 1471 1477 1480 1483 1487 1491 1496 1500 1505
1439 1436 1433 1433 1428 1421 1419 1414 1394 1399 1401 1402 1408 1411 1411 1412 1409 1403 1397 1394 1391 1390 1390 1390 1391 1393 1398 1400 1405 1411 1414 1418 1422 1427 1433 1439 1444 1449 1457 1462 1469 1473 1479 1482 1485 1488 1493 1498 1502